Vorticity
nan nan nan nan nan nan nan nan nan nan nan nan nan nan nan nan nan nan nan nan nan nan nan nan nan nan nan nan nan nan nan nan nan nan nan nan nan nan nan nan nan nan nan nan nan
nan 6 6 7 7 7 7 7 7 7 7 7 7 7 8 12 15 12 18 21 14 1 4 0 5 2 0 8 9 7 4 5 6 9 8 7 6 6 4 5 7 4 10 12 nan
nan 6 6 6 7 7 7 7 7 7 7 8 8 8 8 15 14 18 15 14 4 1 0 3 6 1 4 8 8 2 4 5 9 9 9 8 7 3 5 9 9 10 11 8 nan
nan 6 6 7 7 7 7 7 7 8 7 8 8 9 17 14 8 16 21 10 0 5 2 4 4 2 3 7 4 2 4 2 5 10 9 7 8 5 0 3 14 17 13 7 nan
nan 7 7 7 7 7 7 7 8 8 8 8 9 12 17 8 13 17 14 8 2 2 4 1 2 3 4 4 5 9 0 4 6 6 11 9 8 7 9 4 10 14 10 6 nan
nan 7 7 7 7 7 8 8 8 8 8 9 11 15 12 7 15 15 11 2 -1 3 3 3 3 4 11 7 4 5 9 6 11 12 18 10 7 7 7 13 9 8 7 6 nan
nan 7 7 7 8 8 8 8 9 8 12 15 17 13 7 13 11 12 9 3 2 3 6 8 6 5 7 11 6 2 5 13 17 10 18 12 11 12 10 12 8 7 6 6 nan
nan 7 7 7 8 8 8 8 9 15 18 21 14 6 6 17 10 7 5 5 8 6 5 8 8 8 7 9 7 6 7 11 5 8 10 5 7 21 19 9 7 8 6 8 nan
nan 7 8 8 8 8 8 8 22 20 16 14 8 5 11 9 12 11 5 6 9 7 7 4 8 10 11 5 7 4 7 9 -4 9 6 2 2 8 14 10 8 8 8 8 nan
nan 8 7 7 7 8 16 26 22 16 12 0 10 11 13 3 9 14 13 9 7 6 3 6 5 10 4 5 5 9 9 2 3 8 4 4 4 4 9 5 9 9 11 8 nan
nan 7 7 7 8 11 22 29 18 12 3 0 2 6 2 7 10 8 12 10 7 5 4 6 4 7 8 4 2 7 8 4 7 3 4 6 8 8 7 11 9 10 11 8 nan
nan 8 8 8 8 21 18 9 10 7 12 15 4 5 -0 6 10 10 8 8 9 6 6 2 5 4 8 11 13 5 4 7 5 5 10 6 4 6 10 13 14 13 11 9 nan
nan 7 9 8 22 22 13 12 2 11 14 14 15 14 20 7 5 8 7 5 6 9 7 1 3 14 10 7 7 6 6 9 9 6 4 10 11 12 10 9 12 16 16 13 nan
nan 8 5 21 21 11 16 3 7 13 14 18 14 16 16 6 16 19 7 5 4 12 9 9 13 8 2 4 8 7 13 11 11 8 9 6 7 11 10 6 12 19 18 12 nan
nan 8 12 20 15 7 3 4 15 12 8 15 9 8 16 6 8 27 15 4 4 4 10 8 16 6 6 8 7 9 8 10 14 15 13 2 4 7 7 8 8 8 10 17 nan
nan 7 17 19 10 6 2 14 16 8 13 6 10 10 7 6 1 7 14 12 13 9 2 4 7 10 15 14 10 9 7 8 10 15 13 12 7 7 4 7 9 3 3 12 nan
nan 10 17 10 10 8 15 17 8 7 7 13 7 7 6 15 12 3 8 11 8 11 6 12 2 4 10 11 9 4 5 10 10 8 7 17 8 3 13 11 5 4 9 18 nan
nan 25 25 13 5 7 14 10 7 10 6 1 3 8 11 16 17 14 4 8 11 3 4 11 9 14 7 7 6 8 4 4 7 10 12 4 8 8 6 10 7 5 12 17 nan
nan 27 11 15 11 10 13 7 6 4 8 7 9 14 14 9 12 21 15 10 9 7 2 9 8 13 19 18 10 3 9 8 11 7 8 8 12 10 4 6 8 9 12 14 nan
nan 12 15 12 14 10 9 8 -0 5 8 12 14 12 12 11 13 15 14 16 16 16 6 3 12 12 13 9 8 10 12 12 6 9 10 9 5 11 12 12 17 16 12 12 nan
nan 8 15 14 8 9 11 14 10 -0 3 7 12 7 7 4 12 15 11 13 21 16 13 5 11 6 6 12 10 10 4 -1 4 15 11 11 7 13 11 10 14 15 13 12 nan
nan 12 10 10 8 9 14 6 8 12 7 3 4 9 6 5 13 16 10 7 17 18 19 11 5 7 1 2 11 15 16 7 7 7 -0 4 8 8 15 13 12 11 11 10 nan
nan 14 9 8 14 10 11 8 5 13 8 8 5 3 5 7 11 10 9 10 12 16 15 15 10 10 6 2 6 10 8 8 5 8 11 11 13 6 7 12 14 13 12 8 nan
nan 15 11 9 5 8 14 14 9 9 10 12 10 6 6 7 4 4 8 4 6 12 13 11 13 13 11 9 12 10 5 10 7 6 11 9 5 -0 5 8 14 18 14 11 nan
nan 5 10 15 8 5 6 10 13 13 11 12 17 10 9 7 7 9 6 7 10 9 9 11 12 13 10 12 16 18 14 11 9 4 8 14 8 0 6 9 15 19 17 12 nan
nan 8 9 11 13 14 11 7 10 16 13 9 8 14 16 8 6 11 15 7 10 10 9 10 12 14 17 14 17 12 18 16 11 12 13 13 4 2 10 9 11 15 19 14 nan
nan nan nan nan nan nan nan nan nan nan nan nan nan nan nan nan nan nan nan nan nan nan nan nan nan nan nan nan nan nan nan nan nan nan nan nan nan nan nan nan nan nan nan nan nan
CAPE
0 0 0 0 0 0 0 0 0 0 0 0 0 0 0 0 0 0 0 0 54 739 292 49 770 1044 713 410 561 328 53 17 4 13 32 209 240 452 548 520 439 471 571 740 1035
0 0 0 0 0 0 0 0 0 0 0 0 0 0 0 0 0 0 0 439 485 989 41 340 490 944 452 12 23 215 1 0 0 7 34 165 322 435 675 594 692 678 1057 1090 1093
0 0 0 0 0 0 0 0 0 0 0 0 0 0 0 0 0 0 452 989 723 285 3 3 26 88 0 0 0 15 0 0 0 3 5 133 317 527 603 452 373 579 864 1347 1139
0 0 0 0 0 0 0 0 0 0 0 0 0 0 0 0 0 0 641 721 695 5 0 0 0 0 0 0 0 0 0 0 0 0 13 67 176 473 569 346 233 340 726 1295 1412
0 0 0 0 0 0 0 0 0 0 0 0 0 0 0 0 0 92 888 506 11 0 0 0 0 0 0 0 0 0 0 0 0 0 3 59 127 252 467 478 494 462 632 1138 1321
0 0 0 0 0 0 0 0 0 0 0 0 0 0 0 0 0 0 0 0 0 0 0 0 0 0 0 0 0 0 0 0 0 16 29 52 78 181 207 456 643 625 704 886 1053
0 0 0 0 0 0 0 0 0 0 0 0 0 0 0 0 0 0 0 0 0 0 0 0 0 0 0 0 0 0 0 0 8 65 43 63 89 156 183 525 787 822 784 890 1011
0 0 0 0 0 0 0 0 0 0 0 0 0 0 0 0 0 0 0 0 0 0 0 0 0 0 0 0 0 0 0 14 32 42 90 144 119 169 202 504 818 935 985 945 1060
0 0 0 0 0 0 0 0 0 0 0 0 0 0 0 0 0 0 0 0 0 0 0 0 0 0 0 0 0 0 0 38 39 3 126 152 100 130 244 417 715 983 1107 1248 1131
1 0 1 1 0 0 0 0 0 0 0 0 0 0 0 0 0 0 0 0 0 0 0 0 0 0 0 0 0 0 2 2 3 23 62 18 55 23 316 363 536 724 1084 1385 1454
1 2 1 0 0 0 0 0 0 0 0 0 0 0 0 0 0 0 0 0 0 0 0 0 0 0 0 0 0 0 0 0 0 0 0 0 0 0 8 170 385 653 1123 1363 1444
2 3 3 0 0 0 0 0 0 0 0 0 0 0 0 0 0 0 0 0 0 0 0 0 0 0 0 0 0 0 0 0 0 0 0 0 0 0 0 4 100 322 806 1214 1291
3 4 3 2 0 0 0 0 0 0 0 0 0 0 0 0 0 0 0 0 0 0 0 0 0 0 0 0 0 0 0 0 0 0 0 0 0 0 0 0 36 120 325 835 1133
1 4 3 1 0 0 0 0 0 0 0 0 0 0 0 0 0 0 0 0 0 0 0 0 0 0 0 0 0 0 0 0 0 0 0 14 0 3 0 0 0 46 161 433 864
0 3 5 0 0 0 0 0 0 0 0 0 0 0 0 0 0 0 0 0 0 0 0 0 0 0 0 0 0 0 0 0 0 0 0 0 0 10 1 0 9 173 229 255 510
0 2 5 0 0 0 0 0 0 0 0 0 0 0 0 0 0 0 0 0 0 0 0 0 0 0 0 0 0 0 0 0 0 0 0 0 13 0 60 7 0 143 456 651 411
0 0 2 0 0 0 0 0 0 0 0 0 0 0 0 0 0 0 0 0 0 0 0 0 0 0 0 0 0 0 0 0 0 0 0 17 0 0 5 0 24 616 783 639 624
0 0 0 0 0 0 0 0 0 0 0 0 0 0 0 0 0 0 0 0 0 0 0 0 0 0 0 0 0 0 0 0 0 0 11 1 0 0 0 16 492 867 899 466 865
0 0 0 0 0 0 0 0 0 0 0 0 0 0 0 0 0 0 0 0 0 0 0 0 0 0 0 0 0 0 0 0 0 0 0 4 0 0 0 0 7 707 1075 950 1363
0 0 0 0 0 0 0 0 0 0 0 0 0 0 0 0 0 0 0 0 0 0 0 0 0 0 0 0 0 0 0 0 0 0 2 0 0 0 0 0 129 982 1561 1470 1538
0 0 0 0 0 0 0 0 0 0 0 0 0 0 0 0 0 0 0 0 0 0 0 0 0 0 0 0 0 0 0 0 1 4 19 19 15 0 0 188 937 1671 1909 1809 1727
0 0 0 0 0 0 0 0 0 0 0 0 0 0 0 0 0 0 0 0 0 0 0 0 0 2 0 0 0 0 0 0 0 9 0 0 1 277 413 604 886 1878 2029 2206 2129
0 0 0 0 0 0 0 0 0 0 0 0 0 0 0 0 0 0 0 0 4 73 0 0 0 0 3 0 0 0 0 0 0 107 52 21 57 354 578 712 806 1241 2131 1588 1322
0 0 0 0 0 0 0 0 0 0 0 0 0 0 0 0 0 0 0 0 0 150 0 0 1 7 17 27 10 0 0 0 0 31 25 45 211 955 1048 1000 1014 861 1942 2112 1509
0 0 8 0 0 0 0 0 0 0 0 0 0 0 0 0 0 0 0 0 2 4 38 15 157 50 10 1 0 5 0 0 4 52 144 101 242 1283 1224 1082 970 873 1251 2086 1893
0 0 0 0 1 0 0 3 0 0 0 0 0 0 0 0 0 0 0 0 13 36 305 322 581 197 65 53 5 2 9 16 55 84 232 261 978 1301 1217 1073 1503 1179 951 1911 2271
0 0 0 0 19 43 4 0 0 0 0 0 0 0 0 0 0 8 73 149 158 150 129 383 694 540 232 139 179 368 330 103 512 631 952 471 1657 1377 1336 1292 2120 2208 1444 1070 1487